Showing default

QIANFAN-57, 62787

Orbit data source: Space-Track

QIANFAN-57, 62787 is a Chinese payload satellite in LEO that was launched on Thu, 23 Jan 2025 UTC via a CHANG ZHENG 6A launch vehicle from the Taiyaun Space Center, China (TSC). Payload-class satellites include a variety of spacecraft equipped with specific instruments for various scientific and technological missions. These include communications satellites like Starlink; space stations such as the ISS; scientific satellites like the Hubble; Earth observation satellites from companies like Planet Labs, Umbra, and HawkEye 360; GPS; miniature CubeSats for education and research; and military/defense satellites.

Loading next visibility...
Identifier
62787, 2025-016C
Orbit
LEO
Country
Flag of CNCN / PRC
Related business
Manufacturer
SECM
Mission
Operational Commercial Communications
Bus & Motor
QIANFAN, Unknown motor
Mass
267 kg wet, ~267 kg dry
Launch date (UTC)
2025-01-23 (2 years ago)
Launch vehicle
CHANG ZHENG 6A
Launch site
Taiyaun Space Center, China (TSC)
Object type
Payload
Rocket body
Debris
Shape & HBR
Box + 1 Pan, 5.0 m
Radar Cross Section
13.200 m², Large (>1 m²)

Expand to show TLE details & history
Last TLE update: 9 hours ago

TLE from 9 hours ago
0 QIANFAN-57
1 62787U 25016C   26257.56163461  .00000040  00000-0  43847-4 0  9992
2 62787  88.9673  74.5788 0002513  84.9679 275.1759 13.51027519 84446
Epoch: 2026-09-14T13:28Z
TLE epoch observation values (Epoch: 2026-09-14T13:28:45.230Z)
Latitude
-0.00001°
Longitude
-121.14982°
Altitude
1,071.265 km
Speed
7.316 km/s
True Right ascension
04h 58m 18s
True Declination
0° 00' 00"
Sunlit
Object was in daylight at epoch
Visualization orbit readout
Latitude
Unknown
Longitude
Unknown
Altitude
Unknown
Speed
Unknown
Apparent Right ascension
Unknown
Apparent Declination
Unknown
Sunlit
N/A
Visualization observer readout
Local Sidereal Time
14:59:04
Azimuth
Unknown
Elevation
Unknown
Doppler factor
Unknown
Orbital elements
Apogee altitude
1,067.402 km
Perigee altitude
1,063.661 km
Semi-major axis
7,443.669 km
Eccentricity
0.00025
Inclination
88.9673°
RAAN
74.5788°
Arg. of periapsis
84.9679°
True anomaly
275.14722°
Mean anomaly
275.1759°
Eccentric anomaly
275.16156°
Mean motion
3.37958 °/min
Orbital period
106.52 mins
BSTAR
0.000043847
Loading maneuver chart data...
Computing Atmospheric mass density...
Loading historical data...
Loading historical data...
Loading historical data...
Loading historical data...
Loading historical data...
Loading historical data...
Loading historical data...

Documentation

Showing up to 5 results
|